Location: Praha
(50.0830°N, 14.4670°E)
Time: 20:28:52
(UTC+01:00)

ISS - Pass Details

Date: 18 January 2022
Orbit: 413 x 422 km, 51.6° (Epoch: 20 January)

Event Time Altitude Azimuth Distance (km) Brightness Sun altitude
Rises 18:13:16 0° 196° (SSW) 2,335 0.5 -15.6°
Reaches altitude 10° 18:16:07 10° 169° (S) 1,479 -1.0 -16.1°
Enters shadow 18:17:28 13° 145° (SE) 1,292 -1.5 -16.3°
